• Join FlightAware (Why Join?)
  • Login
  • US Flag GB Flag 
22:33 EDT


 

Airport Tracker/Info


-or-


 

Live Flight TrackerFlight Track Log ✈ SWA1718 ✈ 16-Apr-2013 ✈ KMDW - KBUF

Flight Track Log - Related Links

Times and Time Zones

All times are in EDT time to prevent confusion due to time zone crossing. See the SWA1718 flight status page for this flight to view local times or setup timezone preferences in your user account.

Time Position Orientation Groundspeed Altitude Reporting Facility
EDT Latitude Longitude Course Direction KTS MPH feet Rate Location/Type
22:04 41.8000 -87.7000 90° East 184 212 2,700  Level Chicago TRACON
22:05 41.8000 -87.6000 90° East 250 288 5,300 2,520 Climbing Chicago TRACON
22:05 41.7986 -87.5753 94° East 225 259 6,100 2,520 Climbing Chicago Center
22:07 41.7867 -87.4608 98° East 307 353 8,800 2,760 Climbing Chicago Center
22:08 41.7786 -87.3403 95° East 323 372 11,800 2,220 Climbing Chicago Center
22:09 41.7694 -87.2092 95° East 354 407 13,400 1,500 Climbing Chicago Center
22:10 41.7592 -87.0556 95° East 411 473 14,900 2,040 Climbing Chicago Center
22:11 41.7628 -86.8919 88° East 441 507 17,600 2,100 Climbing Chicago Center
22:12 41.7642 -86.7247 89° East 451 519 19,300 1,980 Climbing Chicago Center
22:13 41.7658 -86.5219 89° East 463 533 21,700 1,860 Climbing Chicago Center
22:14 41.7753 -86.3419 86° East 482 555 23,200 1,380 Climbing Chicago Center
22:15 41.8008 -86.1619 79° East 492 566 24,600 1,260 Climbing Chicago Center
22:16 41.8247 -85.9756 80° East 501 577 25,800 1,140 Climbing Chicago Center
22:17 41.8506 -85.7817 80° East 518 596 27,000 1,560 Climbing Chicago Center
22:18 41.8756 -85.5883 80° East 518 596 29,000 1,740 Climbing Chicago Center
22:19 41.8992 -85.3972 81° East 511 588 30,600 1,380 Climbing Chicago Center
22:19 41.9147 -85.3081 77° East 520 598 31,000 240 Climbing Cleveland Center
22:20 41.9350 -85.1169 82° East 520 598 31,000  Level Cleveland Center
22:21 41.9569 -84.9256 81° East 520 598 31,000  Level Cleveland Center
22:22 41.9806 -84.7372 80° East 520 598 31,000  Level Cleveland Center
22:23 42.0017 -84.5514 81° East 515 593 31,000  Level Cleveland Center
22:24 42.0269 -84.3656 80° East 510 587 31,000  Level Cleveland Center
22:25 42.0406 -84.1958 84° East 510 587 31,000  Level Cleveland Center
22:26 42.0611 -84.0067 82° East 510 587 31,000  Level Cleveland Center
22:27 42.0811 -83.8147 82° East 510 587 31,000  Level Cleveland Center
22:28 42.1008 -83.6281 82° East 510 587 31,000  Level Cleveland Center
22:29 42.1294 -83.4139 80° East 515 593 31,000  Level Cleveland Center
22:30 42.1486 -83.2214 82° East 520 598 31,000  Level Cleveland Center
22:31 42.1653 -83.0289 83° East 520 598 31,000 -600 Level Cleveland Center
22:32 42.1858 -82.8389 82° East 520 598 29,900 -1,020 Descending Cleveland Center
22:33 42.2042 -82.6461 83° East 520 598 29,000 -900 Descending Cleveland Center
22:34 42.2239 -82.4533 82° East 520 598 28,100 -960 Descending Cleveland Center
22:35 42.2417 -82.2547 83° East 520 598 27,100 -960 Descending Cleveland Center
22:36 42.2586 -82.0756 83° East 520 598 26,200 -960 Descending Cleveland Center
22:37 42.2800 -81.8628 82° East 525 604 25,200 -600 Descending Cleveland Center
22:38 42.2986 -81.6694 83° East 517 595 25,000 -120 Descending Cleveland Center
22:39 42.3150 -81.4761 83° East 517 595 25,000  Level Cleveland Center
22:40 42.3331 -81.2769 83° East 523 602 25,000  Level Cleveland Center
22:41 42.3486 -81.0833 84° East 518 596 25,000  Level Cleveland Center
22:42 42.3661 -80.8894 83° East 519 597 25,000  Level Cleveland Center
22:43 42.3808 -80.6983 84° East 513 590 25,000  Level Cleveland Center
22:44 42.3956 -80.5186 84° East 519 597 25,000  Level Cleveland Center
22:45 42.4119 -80.3244 83° East 519 597 25,000  Level Cleveland Center
22:46 42.4258 -80.1275 84° East 525 604 25,000 -840 Level Cleveland Center
22:47 42.4417 -79.9164 84° East 525 604 23,400 -2,460 Descending Cleveland Center
22:48 42.4569 -79.7278 84° East 509 586 20,100 -3,120 Descending Cleveland Center
22:49 42.4725 -79.5697 82° East 486 559 17,200 -3,360 Descending Cleveland Center
22:50 42.4853 -79.3978 84° East 471 542 13,400 -3,000 Descending Cleveland Center
22:51 42.5550 -79.2839 50° Northeast 392 451 11,200 -2,100 Descending Cleveland Center
22:52 42.6478 -79.1972 34° Northeast 375 432 9,200 -1,680 Descending Cleveland Center
22:53 42.7178 -79.1278 36° Northeast 332 382 7,900 -1,140 Descending Cleveland Center
22:54 42.7756 -79.0700 36° Northeast 298 343 7,000 -480 Descending Cleveland Center
22:55 42.8392 -79.0061 36° Northeast 282 325 7,000 -120 Level Cleveland Center
22:56 42.9111 -78.9364 35° Northeast 282 325 6,800 -1,020 Descending Cleveland Center
22:57 42.9664 -78.8611 45° Northeast 276 318 5,000 -1,740 Descending Cleveland Center
22:58 43.0000 -78.8167 44° Northeast 233 268 3,900 -1,380 Descending Buffalo TRACON
22:59 43.0167 -78.7500 71° East 198 228 2,700 -840 Descending Buffalo TRACON
23:00 43.0000 -78.6833 109° East 170 196 2,300 -660 Descending Buffalo TRACON
23:01 42.9667 -78.6833 180° South 137 158 1,400 -900 Descending Buffalo TRACON
23:03 42.9333 -78.7167 132° Southeast  Level FlightAware Approximate